Date String (YYYY-MM-DD hh:mm:ss) UTC,Instrument flags,Ambient pressure (hPa),Sample flow (lpm),Bypass flow (lpm),Sample temperature (°C),Ambient temperature (°C),ASC tube jacket temperature (°C),LED temperature (°C),Box temperature (°C),Sample RH (%),Span deviation,Mass concentration (μg/m³),Mass concentration (μg/m³),Mass concentration (μg/m³)
DateTimeUTC,F1_M11,P_M11,Q1_M11,Q2_M11,T1_M11,T2_M11,T3_M11,T4_M11,T5_M11,U1_M11,ZSPAN_M11,X2_M11,X0_M11,X1_M11
2022-07-18 00:00:00,,0827.8,4.99,0.00,29.3,27.5,00.0,37.8,31.2,22.2,0000.0,0006.97,0012.26,0006.14
2022-07-18 00:01:00,,0827.8,5.00,0.00,29.3,27.1,00.0,37.8,31.2,22.1,0000.0,0006.92,0012.10,0006.13
2022-07-18 00:02:00,,0827.8,5.00,0.00,29.2,27.1,00.0,37.8,31.1,22.3,0000.0,0006.93,0012.38,0006.11
2022-07-18 00:03:00,,0827.8,5.00,0.00,29.2,27.3,00.0,37.8,31.0,22.1,0000.0,0006.92,0012.64,0006.10
2022-07-18 00:04:00,,0827.7,5.00,0.00,29.2,27.5,00.0,37.8,31.1,22.2,0000.0,0006.92,0014.59,0006.09
2022-07-18 00:05:00,,0827.8,4.99,0.00,29.2,27.7,00.0,37.8,31.2,21.8,0000.0,0006.92,0015.33,0006.09
2022-07-18 00:06:00,,0827.8,5.01,0.00,29.3,27.9,00.0,37.9,31.2,21.8,0000.0,0006.91,0015.68,0006.08
2022-07-18 00:07:00,,0827.8,4.99,0.00,29.3,28.0,00.0,37.9,31.3,21.9,0000.0,0006.91,0015.69,0006.08
2022-07-18 00:08:00,,0827.8,5.00,0.00,29.3,27.6,00.0,37.8,31.3,21.7,0000.0,0006.93,0015.79,0006.07
2022-07-18 00:09:00,,0827.8,5.00,0.00,29.3,27.2,00.0,37.8,31.2,21.9,0000.0,0006.92,0016.01,0006.05
2022-07-18 00:10:00,,0827.8,5.01,0.00,29.3,27.2,00.0,37.8,31.1,22.1,0000.0,0006.89,0015.90,0006.04
2022-07-18 00:11:00,,0827.7,4.98,0.00,29.2,27.3,00.0,37.8,31.1,21.9,0000.0,0006.86,0015.73,0006.02
2022-07-18 00:12:00,,0827.7,5.01,0.00,29.2,27.5,00.0,37.9,31.1,21.8,0000.0,0006.81,0015.77,0005.97
2022-07-18 00:13:00,,0827.7,5.00,0.00,29.3,27.7,00.0,37.9,31.2,22.0,0000.0,0006.76,0015.26,0005.95
2022-07-18 00:14:00,,0827.7,5.00,0.00,29.3,27.8,00.0,37.9,31.3,21.5,0000.0,0006.69,0015.24,0005.92
2022-07-18 00:15:00,,0827.7,5.00,0.00,29.3,27.4,00.0,37.8,31.2,21.4,0000.0,0006.64,0013.38,0005.89
2022-07-18 00:16:00,,0827.8,4.99,0.00,29.3,27.0,00.0,37.8,31.1,21.8,0000.0,0006.59,0012.97,0005.86
2022-07-18 00:17:00,,0827.7,5.00,0.00,29.2,27.0,00.0,37.8,31.1,21.7,0000.0,0006.58,0014.16,0005.84
2022-07-18 00:18:00,,0827.7,5.00,0.00,29.2,27.2,00.0,37.8,31.0,21.8,0000.0,0006.57,0015.31,0005.81
2022-07-18 00:19:00,,0827.7,5.01,0.00,29.2,27.4,00.0,37.8,31.1,22.0,0000.0,0006.51,0015.54,0005.77
2022-07-18 00:20:00,,0827.8,4.99,0.00,29.2,27.6,00.0,37.8,31.1,22.0,0000.0,0006.51,0015.28,0005.76
2022-07-18 00:21:00,,0827.7,5.00,0.00,29.2,27.9,00.0,37.9,31.2,22.1,0000.0,0006.51,0016.29,0005.74
2022-07-18 00:22:00,,0827.7,5.00,0.00,29.3,28.0,00.0,37.9,31.3,21.8,0000.0,0006.52,0016.48,0005.74
2022-07-18 00:23:00,,0827.7,5.00,0.00,29.3,27.5,00.0,37.8,31.2,21.5,0000.0,0006.54,0016.17,0005.74
2022-07-18 00:24:00,,0827.7,5.00,0.00,29.3,27.1,00.0,37.8,31.1,21.6,0000.0,0006.54,0016.32,0005.73
2022-07-18 00:25:00,,0827.7,5.00,0.00,29.2,27.1,00.0,37.8,31.1,21.8,0000.0,0006.57,0016.93,0005.72
2022-07-18 00:26:00,,0827.7,5.00,0.00,29.2,27.3,00.0,37.8,31.0,21.9,0000.0,0006.61,0017.51,0005.72
2022-07-18 00:27:00,,0827.7,5.00,0.00,29.2,27.5,00.0,37.8,31.1,22.0,0000.0,0006.61,0017.15,0005.72
2022-07-18 00:28:00,,0827.8,5.00,0.00,29.2,27.7,00.0,37.8,31.1,21.8,0000.0,0006.59,0015.53,0005.71
2022-07-18 00:29:00,,0827.8,5.00,0.00,29.3,27.9,00.0,37.9,31.2,21.4,0000.0,0006.62,0014.72,0005.72
2022-07-18 00:30:00,,0827.9,5.01,0.00,29.3,27.7,00.0,37.8,31.3,21.7,0000.0,0006.65,0014.69,0005.72
2022-07-18 00:31:00,,0827.8,5.00,0.00,29.3,27.1,00.0,37.8,31.2,22.1,0000.0,0006.64,0015.99,0005.73
2022-07-18 00:32:00,,0827.8,5.00,0.00,29.2,27.0,00.0,37.8,31.1,21.9,0000.0,0006.64,0015.76,0005.74
2022-07-18 00:33:00,,0827.9,5.00,0.00,29.2,27.1,00.0,37.8,31.0,22.0,0000.0,0006.65,0015.94,0005.75
2022-07-18 00:34:00,,0827.9,5.00,0.00,29.2,27.3,00.0,37.8,31.0,22.6,0000.0,0006.67,0016.44,0005.75
2022-07-18 00:35:00,,0827.9,4.99,0.00,29.2,27.6,00.0,37.8,31.1,22.5,0000.0,0006.70,0016.36,0005.75
2022-07-18 00:36:00,,0827.9,5.00,0.00,29.2,27.8,00.0,37.8,31.2,22.4,0000.0,0006.66,0015.35,0005.75
2022-07-18 00:37:00,,0827.9,5.00,0.00,29.3,28.0,00.0,37.9,31.2,22.3,0000.0,0006.63,0014.71,0005.74
2022-07-18 00:38:00,,0827.9,5.00,0.00,29.3,27.8,00.0,37.8,31.3,22.4,0000.0,0006.67,0015.32,0005.73
2022-07-18 00:39:00,,0827.8,5.00,0.00,29.3,27.2,00.0,37.8,31.2,22.6,0000.0,0006.69,0015.42,0005.72
2022-07-18 00:40:00,,0827.8,5.00,0.00,29.2,27.0,00.0,37.8,31.1,22.2,0000.0,0006.61,0015.19,0005.70
2022-07-18 00:41:00,,0827.8,5.01,0.00,29.2,27.1,00.0,37.8,31.1,22.0,0000.0,0006.55,0015.67,0005.67
2022-07-18 00:42:00,,0827.7,5.00,0.00,29.2,27.3,00.0,37.8,31.0,22.4,0000.0,0006.56,0015.95,0005.64
2022-07-18 00:43:00,,0827.7,5.01,0.00,29.2,27.6,00.0,37.8,31.1,22.5,0000.0,0006.56,0015.57,0005.61
2022-07-18 00:44:00,,0827.8,4.99,0.00,29.2,27.8,00.0,37.9,31.2,22.8,0000.0,0006.55,0015.19,0005.58
2022-07-18 00:45:00,,0827.7,5.01,0.00,29.3,28.0,00.0,37.9,31.3,22.8,0000.0,0006.53,0014.67,0005.57
2022-07-18 00:46:00,,0827.7,5.01,0.00,29.3,27.8,00.0,37.9,31.3,22.5,0000.0,0006.49,0014.94,0005.55
2022-07-18 00:47:00,,0827.7,5.00,0.00,29.3,27.2,00.0,37.8,31.2,22.8,0000.0,0006.49,0015.27,0005.54
2022-07-18 00:48:00,,0827.8,5.00,0.00,29.3,27.1,00.0,37.8,31.1,23.0,0000.0,0006.50,0015.86,0005.53
2022-07-18 00:49:00,,0827.7,5.00,0.00,29.2,27.2,00.0,37.8,31.1,22.9,0000.0,0006.48,0015.33,0005.53
2022-07-18 00:50:00,,0827.8,5.00,0.00,29.2,27.4,00.0,37.8,31.1,22.4,0000.0,0006.46,0015.24,0005.51
2022-07-18 00:51:00,,0827.7,5.00,0.00,29.2,27.6,00.0,37.8,31.1,22.6,0000.0,0006.48,0015.35,0005.50
2022-07-18 00:52:00,,0827.7,5.00,0.00,29.2,27.8,00.0,37.9,31.2,22.8,0000.0,0006.47,0014.62,0005.51
2022-07-18 00:53:00,,0827.8,5.00,0.00,29.3,27.9,00.0,37.9,31.3,22.8,0000.0,0006.45,0013.46,0005.51
2022-07-18 00:54:00,,0827.7,5.00,0.00,29.3,27.4,00.0,37.8,31.2,23.0,0000.0,0006.44,0012.61,0005.51
2022-07-18 00:55:00,,0827.7,5.01,0.00,29.3,27.0,00.0,37.8,31.1,23.2,0000.0,0006.44,0012.50,0005.52
2022-07-18 00:56:00,,0827.7,5.00,0.00,29.2,27.0,00.0,37.8,31.1,23.1,0000.0,0006.44,0012.81,0005.51
2022-07-18 00:57:00,,0827.7,5.00,0.00,29.2,27.2,00.0,37.8,31.0,23.3,0000.0,0006.48,0012.80,0005.52
2022-07-18 00:58:00,,0827.7,5.01,0.00,29.2,27.4,00.0,37.8,31.0,23.2,0000.0,0006.47,0012.42,0005.52
2022-07-18 00:59:00,,0827.8,4.98,0.00,29.2,27.6,00.0,37.8,31.1,23.5,0000.0,0006.48,0012.28,0005.51
